Zurück zum Katalog

FREGAT DEB

AktivUNKNOWN
NORAD 46411·DEBRIS·🇷🇺 Russia

Gestartet Jul 18, 2011 von Baikonur Cosmodrome

Loading…

Nächste Überflüge (nächste 24 Stunden)

TLE

AktuellSource: Space-Track

Epoche: Sep 14, 2026, 08:20 UTC

1 46411U 11037LS  26257.34723824  .00004584  00000-0  12927-2 0  9997
2 46411  51.4845  12.5855 1518474 337.7427  16.3719 11.96430652260275

Verfolge FREGAT DEB in Echtzeit mit AllMySat

Download on the App Store